This is the latest recevied weather packets stored in our database for station/object N4WFF. If no packets are shown the sender has not sent any weather packets the latest 10 day(s).
| Time | Temp. | Humidity | Pressure | Rain* | Wind** | Luminosity | Snow |
|---|---|---|---|---|---|---|---|
| 1777650956 | 14.44° C | 95% | 1015 hPa | 0.76 mm | - | 399 W/m² | - |
| 1777650656 | 14.44° C | 95% | 1015.1 hPa | 0 mm | - | 196 W/m² | - |
| 1777650068 | 13.89° C | 95% | 1015.5 hPa | 0.25 mm | - | 78 W/m² | - |
| 1777649757 | 13.89° C | 95% | 1015.4 hPa | 0.25 mm | - | 50 W/m² | - |
| 1777649456 | 13.89° C | 94% | 1015.1 hPa | 0.51 mm | - | 83 W/m² | - |
| 1777649155 | 14.44° C | 94% | 1015.2 hPa | 3.05 mm | - | 65 W/m² | - |
| 1777648856 | 14.44° C | 94% | 1014.9 hPa | 8.38 mm | - | 84 W/m² | - |
| 1777648256 | 14.44° C | 94% | 1014.7 hPa | 0 mm | - | 66 W/m² | - |
| 1777647956 | 14.44° C | 94% | 1014.7 hPa | 0 mm | - | 69 W/m² | - |
| 1777647656 | 14.44° C | 94% | 1014.6 hPa | 0 mm | - | 79 W/m² | - |
| 1777647356 | 14.44° C | 93% | 1014.5 hPa | 0 mm | - | 65 W/m² | - |
| 1777647056 | 15° C | 94% | 1014.6 hPa | 3.81 mm | - | 47 W/m² | - |
| 1777646755 | 15° C | 94% | 1014.6 hPa | 0 mm | - | 30 W/m² | - |
| 1777646456 | 15° C | 94% | 1014.2 hPa | 0.25 mm | - | 35 W/m² | - |
| 1777646156 | 15° C | 93% | 1014.2 hPa | 0 mm | - | 55 W/m² | - |
| 1777645855 | 15.56° C | 93% | 1014.2 hPa | 3.05 mm | - | 55 W/m² | - |
| 1777645556 | 15.56° C | 93% | 1014.1 hPa | 0.25 mm | - | 82 W/m² | - |
| 1777645255 | 15.56° C | 93% | 1014.1 hPa | 0.51 mm | - | 140 W/m² | - |
| 1777644956 | 15.56° C | 92% | 1014.1 hPa | 3.05 mm | - | 148 W/m² | - |
| 1777644656 | 15.56° C | 93% | 1014.1 hPa | 0 mm | - | 149 W/m² | - |
| 1777644355 | 15.56° C | 93% | 1014.1 hPa | 0 mm | - | 136 W/m² | - |
| 1777644055 | 15.56° C | 94% | 1014.1 hPa | 0 mm | - | 64 W/m² | - |
| 1777643755 | 15.56° C | 93% | 1014 hPa | 0 mm | - | 46 W/m² | - |
| 1777643457 | 15.56° C | 94% | 1014 hPa | 0 mm | - | 69 W/m² | - |
| 1777643155 | 15.56° C | 94% | 1014.1 hPa | 0 mm | - | 74 W/m² | - |
* Rain latest hour (hover to see other rain measurements)
** Current wind speed in m/s (hover to see current wind gust speed)